Date,TemperatureHighF,TemperatureAvgF,TemperatureLowF,DewpointHighF,DewpointAvgF,DewpointLowF,HumidityHigh,HumidityAvg,HumidityLow,PressureMaxIn,PressureMinIn,WindSpeedMaxMPH,WindSpeedAvgMPH,GustSpeedMaxMPH,PrecipitationSumIn
2013-3-1,47,41,35,34,31,29,86,68,52,29.42,29.26,9,4,18,0.00
2013-3-2,42,38,32,30,27,26,89,66,53,29.43,29.36,6,3,17,0.00
2013-3-3,41,35,30,29,24,21,88,66,47,29.40,29.32,8,4,23,0.00
2013-3-4,44,35,28,24,22,19,71,60,46,29.55,29.40,9,6,26,0.00
2013-3-5,50,40,31,36,28,22,85,66,43,29.69,29.55,8,4,18,0.00
2013-3-6,44,40,35,36,34,32,94,80,67,29.66,29.50,17,12,42,0.01
2013-3-7,38,35,33,34,33,32,96,91,77,29.70,29.53,20,11,40,0.02
2013-3-8,41,36,32,35,32,27,96,86,58,29.80,29.63,12,8,27,0.18
2013-3-9,55,42,33,35,27,21,89,58,27,30.00,29.80,13,6,24,0.00
2013-3-10,49,40,31,37,34,28,91,79,62,30.06,29.99,8,3,15,0.00
2013-3-11,56,46,39,45,41,36,93,83,67,30.00,29.78,7,3,14,0.00
2013-3-12,51,48,45,49,46,40,95,92,82,29.78,29.37,12,6,27,0.68
2013-3-13,45,44,42,40,39,38,85,84,83,29.51,29.48,1,1,11,0.00
2013-3-14,37,35,33,11,11,10,39,36,33,29.61,29.56,8,6,26,0.00
2013-3-15,46,39,30,33,22,12,66,52,40,29.64,29.40,9,5,23,0.00
2013-3-16,47,38,34,32,28,24,88,69,48,29.58,29.45,6,2,19,0.01
2013-3-17,39,35,30,31,23,15,90,64,45,29.97,29.58,8,2,20,0.01
2013-3-18,39,34,27,35,23,14,92,64,50,30.08,29.70,15,8,31,0.14
2013-3-19,43,39,37,39,36,33,94,90,77,29.70,29.35,13,6,29,0.42
2013-3-20,50,40,33,30,24,22,75,55,41,29.55,29.47,10,5,26,0.00
2013-3-21,39,37,35,26,25,24,72,63,54,29.50,29.47,6,4,14,0.00
2013-3-22,39,38,37,23,22,22,58,54,50,29.54,29.52,5,4,19,0.00
2013-3-23,49,40,32,25,23,20,69,51,36,29.60,29.48,10,5,27,0.00
2013-3-24,50,40,31,30,25,20,70,56,39,29.62,29.41,9,2,15,0.00
2013-3-25,40,40,40,29,29,29,65,65,65,29.45,29.45,0,0,0,0.00
2013-3-26,41,40,37,30,29,29,72,66,64,29.85,29.45,0,0,3,0.00
2013-3-27,54,44,34,31,27,25,77,54,32,29.94,29.84,8,3,26,0.00
2013-3-28,51,44,36,34,32,30,80,61,48,30.08,29.93,9,4,21,0.00
2013-3-29,47,45,43,32,31,29,61,58,50,30.11,30.08,5,2,14,0.00
2013-3-30,59,47,36,38,33,25,85,60,29,30.14,30.06,9,4,21,0.00
2013-3-31,58,46,34,45,40,32,91,78,60,30.12,29.64,9,4,23,0.11